Hourly Data Report for October 01, 2019

All times are specified in Local Standard Time (LST). Add 1 hour to adjust for Daylight Saving Time where and when it is observed.

SEPT-ILES
QUEBEC
Current Station Operator: ECCC - MSC

50°13'00.000" N
66°15'00.000" W
52.60 m
7047914
71279
XZV

Download Data

Hourly Data (October 2019)
Hourly Data Report for October 1, 2019
TIME Temp Definition
°C
Dew Point Definition
°C
Rel Hum Definition
%
Wind Dir Definition
10's deg

Wind Spd Definition
km/h
Visibility Definition
km
Stn Press Definition
kPa
Hmdx Definition


Wind Chill Definition


Weather Definition


00:00 -0.8 -4.2 78 33 6   101.61   -3 LegendNANA
01:00 -0.1 -3.8 76 34 5   101.59   -2 LegendNANA
02:00 0.2 -3.8 74 34 7   101.53     LegendNANA
03:00 -1.0 -4.2 79 34 6   101.48   -3 LegendNANA
04:00 -1.5 -4.1 82 33 7   101.50   -4 LegendNANA
05:00 -2.7 -5.0 84 32 7   101.51   -6 LegendNANA
06:00 -0.7 -4.2 77 1 6   101.43   -3 LegendNANA
07:00 1.7 -3.9 66 35 6   101.48     LegendNANA
08:00 3.4 -4.0 59 36 8   101.41     LegendNANA
09:00 5.1 -3.9 52 36 7   101.35     LegendNANA
10:00 4.8 -4.1 52 2 4   101.29     LegendNANA
11:00 5.3 -4.4 49 3 6   101.20     LegendNANA
12:00 5.5 -3.7 52 2 2   101.11     LegendNANA
13:00 5.4 -4.3 49 17 6   100.96     LegendNANA
14:00 5.2 -3.4 54 19 2   100.94     LegendNANA
15:00 4.8 -3.3 56 15 3   100.75     LegendNANA
16:00 2.1 -1.2 79 10 10   100.80     LegendNANA
17:00 0.5 -0.3 95 11 3   100.70     LegendNANA
18:00 0.2 -0.2 98 15 3   100.65     LegendNANA
19:00 0.2 -0.1 97   0   100.60     LegendNANA
20:00 0.3 -0.1 98   0   100.48     LegendNANA
21:00 0.4 0.0 97   0   100.39     LegendNANA
22:00 0.5 0.1 97 1 7   100.34     LegendNANA
23:00 0.7 0.1 96 2 7   100.28     LegendNANA

Notes on Data Quality.

Legend

  • E = Estimated
  • M = Missing
  • NA = Not Available
Date modified: